Regional Weather Roundup
Issued by NWS

Home | Current Version | Previous Version | Text Only | Print | Product List | Glossary Off
Versions: 1 2 3 4 5 6 7 8 9 10 11 12 13 14 15 16 17 18 19 20 21 22 23 24 25 26 27 28 29 30 31 32 33 34 35 36 37 38 39 40 41 42 43 44 45 46 47 48 49 50

000
ASUS45 KCYS 230710
RWRWY

WYOMING REGIONAL WEATHER ROUNDUP
NATIONAL WEATHER SERVICE CHEYENNE WY
100 AM MDT WED JUL 23 2014

NOTE:  "FAIR" INDICATES FEW OR NO CLOUDS BELOW 12,000 FEET
WITH NO SIGNIFICANT WEATHER AND/OR OBSTRUCTIONS TO VISIBILITY.

WYZ001-230800-
YELLOWSTONE NATIONAL PARK

CITY           SKY/WX    TMP DP  RH WIND       PRES   REMARKS
LK YELLOWSTONE   N/A     46  41  82 NW3       30.47F
W YELLOWSTONE  NOT AVBL

$$
WYZ002>013-054>058-071-098>099-230800-
NORTHERN WYOMING

CITY           SKY/WX    TMP DP  RH WIND       PRES   REMARKS
JACKSON        CLEAR     55  43  62 NE3       30.35R
CODY           CLEAR     64  45  48 N3        30.30S
GREYBULL       CLEAR     72  50  45 NW20      30.18R
WORLAND        CLEAR     70  48  45 S8        30.20R
SHERIDAN       CLEAR     61  56  83 S8        30.29F
BUFFALO        CLEAR     64  52  64 W3        30.37F
GILLETTE       CLEAR     65  58  78 SE8       30.33R
HULETT         FAIR      64  59  82 MISG      30.33
NEWCASTLE      PTSUNNY   70  54  56 N13       30.36

$$
WYZ014>020-022>026-101>103-230800-
CENTRAL WYOMING

CITY           SKY/WX    TMP DP  RH WIND       PRES   REMARKS
BIG PINEY      PTCLDY    53  29  39 W3        30.40R
PINEDALE       MOSUNNY   48  41  76 NW5       30.40F
DUBOIS         FAIR      55  32  41 NW8       30.42S
LANDER         PTCLDY    70  32  24 NE5       30.25S
RIVERTON       CLEAR     73  39  29 E6        30.28R
CASPER         CLEAR     68  50  52 N8        30.30R
DOUGLAS        CLEAR     72  55  55 SE15G23   30.29R

$$
WYZ021-027>030-104>119-230800-
SOUTHERN WYOMING

CITY           SKY/WX    TMP DP  RH WIND       PRES   REMARKS
EVANSTON       CLEAR     68  35  29 SE7       30.37S
KEMMERER       SUNNY     63  32  31 CALM      30.40S
FORT BRIDGER   FAIR      69  30  23 S6        30.39F
ROCK SPRINGS   CLEAR     73  23  15 E3        30.35F
DIXON          FAIR      65  27  23 E8        30.38S
RAWLINS        CLEAR     61  29  29 N3        30.38S
SARATOGA       FAIR      66  36  32 SE12G18   30.40F
LARAMIE        CLEAR     66  55  67 SE18      30.44S
CHEYENNE       CLEAR     69  58  67 S10       30.41R
TORRINGTON     CLEAR     73  59  61 E17       30.29R
PINE BLUFFS    FAIR      70  59  68 SE15G26   30.35R

$$


USA.gov is the U.S. government's official web portal to all federal, state and local government web resources and services.